Погода в Маланже

Ангола     9°32′35″S   16°19′56″E
темп.,
°C
ветер,
м/с
пор.,
м/с
влажн.,
%
обл.,
%
осадки,
мм/ч
давл.,
гПа
погр.,
м
9 мая, вс
вс901:00+18з1198100 0.1 101511
04:00+17сз1199100 1.0 101417
07:00+18ююз1297100 1.0 1016175
10:00+21юв128587 0.0 1016454
13:00+26вюв255940 0.4 10121643
16:00+26всв236790 0.1 1011576
19:00+21св228091 0.3 101421
22:00+20сз118560 0.0 101617
10 мая, пн
пн1001:00+18зюз119491 0.0 101511
04:00+17юв119695 0.0 101511
07:00+18юв13925 0.0 1017105
10:00+23вюв24648 0.0 1017738
13:00+26вюв35504 0.0 10131703
16:00+25юв23613 0.0 1012527
19:00+19св11780 0.0 101511
22:00+18ссз11792 0.0 101711
11 мая, вт
вт1101:00+17всв11795 0.0 101611
04:00+16юв11843 0.0 101611
07:00+17юв13860 0.0 1018107
10:00+23вюв35600 0.0 1017677
13:00+26вюв35500 0.0 10141799
16:00+25юв246134 0.0 1013520
19:00+19св11780 0.0 101511
22:00+18з11770 0.0 101711
12 мая, ср
ср1201:00+17ююв00821 0.0 101611
04:00+16юв11880 0.0 101617
07:00+16юв14855 0.0 1018132
10:00+23юв35620 0.0 1017651
13:00+26вюв35490 0.0 10141559
16:00+25ююв23600 0.0 1012479
19:00+19вюв11730 0.0 101511
22:00+18с11760 0.0 101611
13 мая, чт
чт1301:00+17св00790 0.0 101511
04:00+16ююв11820 0.0 101514
07:00+16юв24830 0.0 1016122
10:00+23вюв34600 0.0 1016599
13:00+26вюв244917 0.0 10131995
16:00+24вюв246290 0.0 1012249
19:00+21в11678 0.0 101421
22:00+18вюв11730 0.0 101511